TimeCDT,TemperatureF,Dew PointF,Humidity,Sea Level PressureIn,VisibilityMPH,Wind Direction,Wind SpeedMPH,Gust SpeedMPH,PrecipitationIn,Events,Conditions,WindDirDegrees,DateUTC
12:53 AM,59.0,46.0,62,30.03,10.0,SSE,9.2,-,N/A,,Clear,150,2013-05-13 05:53:00
1:53 AM,57.9,46.0,65,30.02,10.0,South,9.2,-,N/A,,Clear,170,2013-05-13 06:53:00
2:53 AM,57.9,46.0,65,30.01,10.0,Variable,4.6,-,N/A,,Clear,0,2013-05-13 07:53:00
3:53 AM,55.0,46.0,72,30.00,10.0,SW,4.6,-,N/A,,Clear,230,2013-05-13 08:53:00
4:53 AM,52.0,45.0,77,29.99,10.0,SSW,3.5,-,N/A,,Clear,200,2013-05-13 09:53:00
5:53 AM,48.9,44.1,83,29.98,10.0,Calm,Calm,-,N/A,,Clear,0,2013-05-13 10:53:00
6:53 AM,53.1,45.0,74,29.96,10.0,SSE,4.6,-,N/A,,Clear,160,2013-05-13 11:53:00
7:53 AM,57.0,48.0,72,29.98,10.0,Calm,Calm,-,N/A,,Clear,0,2013-05-13 12:53:00
8:53 AM,62.1,46.9,58,29.98,10.0,SW,8.1,-,N/A,,Clear,230,2013-05-13 13:53:00
9:53 AM,66.0,48.0,52,29.98,10.0,West,8.1,-,N/A,,Clear,270,2013-05-13 14:53:00
10:53 AM,72.0,48.9,44,29.96,10.0,West,6.9,-,N/A,,Clear,270,2013-05-13 15:53:00
11:53 AM,78.1,48.9,36,29.94,10.0,West,5.8,-,N/A,,Clear,260,2013-05-13 16:53:00
12:53 PM,84.0,48.9,29,29.91,10.0,West,4.6,-,N/A,,Clear,270,2013-05-13 17:53:00
1:53 PM,89.1,46.9,23,29.88,10.0,WSW,8.1,-,N/A,,Clear,250,2013-05-13 18:53:00
3:53 PM,93.0,46.0,20,29.86,10.0,NW,9.2,-,N/A,,Partly Cloudy,320,2013-05-13 20:53:00
4:53 PM,88.0,53.1,30,29.86,10.0,NW,4.6,-,N/A,,Clear,310,2013-05-13 21:53:00
5:53 PM,88.0,53.1,30,29.86,10.0,East,3.5,-,N/A,,Clear,90,2013-05-13 22:53:00
6:53 PM,86.0,48.2,27,29.91,10.0,South,5.8,-,N/A,,Clear,170,2013-05-13 23:53:00
7:53 PM,82.9,53.1,36,29.84,10.0,SSW,6.9,-,N/A,,Clear,200,2013-05-14 00:53:00
8:53 PM,77.0,48.0,36,29.83,10.0,SSW,4.6,-,N/A,,Clear,200,2013-05-14 01:53:00
9:53 PM,66.0,48.9,54,29.85,10.0,SSE,3.5,-,N/A,,Clear,160,2013-05-14 02:53:00
10:53 PM,66.0,46.0,48,29.85,10.0,SE,3.5,-,N/A,,Clear,140,2013-05-14 03:53:00
11:53 PM,62.1,46.9,58,29.83,10.0,SE,3.5,-,N/A,,Clear,140,2013-05-14 04:53:00